RADUGA 17 [-]

Last updated on Aug. 12, 2020, 5:32 a.m. UTC

1 16250U 85107A   20224.47702067  .00000083  00000-0  00000+0 0  9998
2 16250  13.1071 335.2621 0011451 156.2010 224.7898  1.00139204130417
UTC
Height (km)
Latitude
Longitude
Inclination
Orbital Period
UTC large
Height (km)
Speed (km/s)
/
Latitude / Longitude
Inclination (degrees)
Orbital Period (minutes)
Azimuth
Elevation
Range (km)
Doppler Factor
iOS Compass Heading
iOS Angle

Next 30 passes for location: Hong Kong

Rise time Rise Azimuth (degrees) Set time Set Azimuth (degrees) Duration Max altitude (degrees)

No matching passes for this satellites